Queralbs





Hora UTC 13:25
Temperatura 12.2 ºC
Humitat 40.0 %
Pressió 1026.6 hPa
Pluja 0.0 mm
Velocitat vent 17.7 km/h
Direcció vent SSE
Radiació solar 508.0 W/m²

Dades diàries 2021-03-01



Hora UTC (hivern +1h; estiu +2h)
Temperatura (ºC) Humitat (%) Pressió (hPa) Velocitat vent (km/h) Precipitació (mm) Radiació solar (W/m²)
Hora UTC Aire Humitat Pressió Vel. Dir. Vel. Max Dir. Intent. màx 5 min. Rad. Sol.
00:05 0.0 61.0 1027.3 1.6 NNW 1.6 0.0 0.0
00:10 0.1 60.0 1027.3 0.0 NNW 1.6 0.0 0.0
00:15 0.2 60.0 1027.4 0.0 NNW 1.6 0.0 0.0
00:20 0.2 60.0 1027.3 0.0 NNW 0.0 0.0 0.0
00:25 0.2 59.0 1027.4 0.0 NNW 1.6 0.0 0.0
00:30 0.2 58.0 1027.3 0.0 NNW 0.0 0.0 0.0
00:35 0.1 58.0 1027.2 0.0 NNW 0.0 0.0 0.0
00:40 0.0 58.0 1027.2 0.0 NNW 0.0 0.0 0.0
00:45 -0.1 58.0 1027.3 0.0 NNW 1.6 0.0 0.0
00:50 -0.1 58.0 1027.3 0.0 NNW 1.6 0.0 0.0
00:55 0.0 58.0 1027.3 0.0 NNW 3.2 0.0 0.0
01:00 0.1 58.0 1027.3 1.6 NNW 3.2 0.0 0.0
01:05 0.0 58.0 1027.3 1.6 NNW 3.2 0.0 0.0
01:10 -0.1 59.0 1027.3 1.6 NNW 3.2 0.0 0.0
01:15 -0.2 59.0 1027.4 1.6 NNW 3.2 0.0 0.0
01:20 -0.3 60.0 1027.3 0.0 NNW 1.6 0.0 0.0
01:25 -0.3 60.0 1027.2 0.0 NNW 1.6 0.0 0.0
01:30 -0.3 60.0 1027.3 0.0 NNW 0.0 0.0 0.0
01:35 -0.3 59.0 1027.2 0.0 NNW 0.0 0.0 0.0
01:40 -0.3 59.0 1027.2 0.0 NNW 0.0 0.0 0.0
01:45 -0.3 59.0 1027.2 0.0 NNW 0.0 0.0 0.0
01:50 -0.2 58.0 1027.2 0.0 NNW 0.0 0.0 0.0
01:55 0.0 57.0 1027.1 0.0 NNW 0.0 0.0 0.0
02:00 0.1 56.0 1027.1 0.0 NNW 0.0 0.0 0.0
02:05 0.1 55.0 1027.1 0.0 NNW 0.0 0.0 0.0
02:10 0.1 56.0 1027.1 0.0 NNW 0.0 0.0 0.0
02:15 0.1 55.0 1027.2 0.0 NNW 0.0 0.0 0.0
02:20 0.4 54.0 1027.2 0.0 NNW 0.0 0.0 0.0
02:25 0.7 52.0 1027.0 0.0 NNW 0.0 0.0 0.0
02:30 0.7 52.0 1027.1 0.0 NNW 0.0 0.0 0.0
02:35 0.7 51.0 1027.1 0.0 NNW 0.0 0.0 0.0
02:40 0.8 50.0 1027.0 0.0 NNW 0.0 0.0 0.0
02:45 1.1 51.0 1027.0 0.0 NNW 0.0 0.0 0.0
02:50 1.0 51.0 1027.2 0.0 NNW 0.0 0.0 0.0
02:55 0.8 51.0 1027.2 0.0 NNW 0.0 0.0 0.0
03:00 0.5 53.0 1027.2 0.0 NNW 0.0 0.0 0.0
03:05 0.3 53.0 1027.3 0.0 NNW 0.0 0.0 0.0
03:10 0.2 53.0 1027.3 0.0 NNW 0.0 0.0 0.0
03:15 0.1 53.0 1027.3 0.0 NNW 1.6 0.0 0.0
03:20 0.0 54.0 1027.4 0.0 NNW 1.6 0.0 0.0
03:25 -0.1 54.0 1027.4 0.0 NNW 0.0 0.0 0.0
03:30 -0.1 53.0 1027.4 0.0 NNW 0.0 0.0 0.0
03:35 -0.1 53.0 1027.4 0.0 NNW 0.0 0.0 0.0
03:40 -0.1 52.0 1027.4 0.0 NNW 0.0 0.0 0.0
03:45 -0.1 52.0 1027.5 0.0 NNW 0.0 0.0 0.0
03:50 0.0 51.0 1027.5 0.0 NNW 0.0 0.0 0.0
03:55 0.2 50.0 1027.4 0.0 NNW 0.0 0.0 0.0
04:00 0.3 51.0 1027.5 0.0 NNW 0.0 0.0 0.0
04:05 0.2 50.0 1027.4 0.0 NNW 0.0 0.0 0.0
04:10 0.3 48.0 1027.5 0.0 NNW 3.2 0.0 0.0
04:15 0.4 50.0 1027.5 0.0 NNW 3.2 0.0 0.0
04:20 0.2 50.0 1027.5 0.0 NNW 3.2 0.0 0.0
04:25 0.1 50.0 1027.5 0.0 NNW 0.0 0.0 0.0
04:30 0.1 51.0 1027.4 0.0 NNW 0.0 0.0 0.0
04:35 0.1 50.0 1027.4 3.2 NNW 4.8 0.0 0.0
04:40 0.2 50.0 1027.5 3.2 NNW 4.8 0.0 0.0
04:45 0.3 50.0 1027.5 0.0 NNW 3.2 0.0 0.0
04:50 0.3 50.0 1027.6 3.2 NNW 3.2 0.0 0.0
04:55 0.2 51.0 1027.7 4.8 NNW 4.8 0.0 0.0
05:00 0.1 51.0 1027.8 3.2 NNW 4.8 0.0 0.0
05:05 0.1 51.0 1027.8 0.0 NNW 4.8 0.0 0.0
05:10 0.0 51.0 1027.7 1.6 NNW 4.8 0.0 0.0
05:15 -0.1 52.0 1027.8 0.0 NNW 3.2 0.0 0.0
05:20 -0.2 52.0 1027.8 0.0 NNW 1.6 0.0 0.0
05:25 -0.2 52.0 1027.8 0.0 NNW 3.2 0.0 0.0
05:30 -0.2 51.0 1027.6 0.0 NNW 3.2 0.0 0.0
05:35 -0.1 51.0 1027.6 1.6 NNW 3.2 0.0 0.0
05:40 0.1 50.0 1027.6 3.2 NNW 3.2 0.0 0.0
05:45 0.1 51.0 1027.5 1.6 NNW 3.2 0.0 0.0
05:50 0.0 51.0 1027.6 0.0 NNW 3.2 0.0 0.0
05:55 0.1 50.0 1027.6 1.6 NNW 4.8 0.0 0.0
06:00 0.1 49.0 1027.6 0.0 NNW 4.8 0.0 0.0
06:05 0.1 48.0 1027.7 0.0 NNW 1.6 0.0 0.0
06:10 0.2 49.0 1027.7 0.0 NNW 0.0 0.0 0.0
06:15 0.2 48.0 1027.7 0.0 NNW 0.0 0.0 0.0
06:20 0.2 49.0 1027.7 0.0 NNW 0.0 0.0 0.0
06:25 0.2 49.0 1027.7 0.0 NNW 0.0 0.0 0.0
06:30 0.2 50.0 1027.9 0.0 NNW 0.0 0.0 0.0
06:35 0.1 48.0 1027.9 0.0 NNW 0.0 0.0 7.0
06:40 0.1 48.0 1027.8 0.0 NNW 0.0 0.0 11.0
06:45 0.3 48.0 1027.9 0.0 NNW 4.8 0.0 16.0
06:50 0.4 47.0 1027.9 6.4 NNW 6.4 0.0 21.0
06:55 0.7 47.0 1027.9 0.0 NNW 6.4 0.0 28.0
07:00 0.8 49.0 1027.9 0.0 NNW 3.2 0.0 32.0
07:05 0.9 48.0 1028.0 0.0 NNW 3.2 0.0 39.0
07:10 1.1 50.0 1028.1 1.6 NNW 3.2 0.0 46.0
07:15 1.1 48.0 1028.2 0.0 NNW 3.2 0.0 51.0
07:20 1.2 49.0 1028.2 0.0 NNW 3.2 0.0 56.0
07:25 1.4 48.0 1028.1 0.0 NNW 3.2 0.0 72.0
07:30 1.7 45.0 1028.0 0.0 NNW 0.0 0.0 86.0
07:35 2.1 45.0 1028.1 0.0 NNW 1.6 0.0 114.0
07:40 2.6 46.0 1028.2 0.0 NNW 1.6 0.0 128.0
07:45 3.1 44.0 1028.0 0.0 NNW 0.0 0.0 146.0
07:50 3.6 46.0 1028.0 1.6 NNW 3.2 0.0 163.0
07:55 4.1 45.0 1027.8 0.0 NNW 3.2 0.0 179.0
08:00 4.6 45.0 1028.0 0.0 NNW 1.6 0.0 195.0
08:05 4.9 45.0 1028.0 1.6 NNW 4.8 0.0 207.0
08:10 5.1 40.0 1028.0 1.6 NNW 4.8 0.0 195.0
08:15 5.2 39.0 1028.0 0.0 NNW 3.2 0.0 214.0
08:20 5.3 38.0 1028.1 1.6 NNW 3.2 0.0 192.0
08:25 5.6 43.0 1028.1 1.6 NNW 3.2 0.0 267.0
08:30 5.7 44.0 1028.0 0.0 NNW 3.2 0.0 281.0
08:35 5.8 42.0 1028.0 1.6 NNW 3.2 0.0 297.0
08:40 5.9 43.0 1028.1 1.6 NNW 3.2 0.0 311.0
08:45 6.2 40.0 1028.0 1.6 NNE 4.8 0.0 322.0
08:50 6.5 44.0 1027.8 1.6 NE 4.8 0.0 334.0
08:55 6.9 41.0 1027.8 3.2 NE 4.8 0.0 348.0
09:00 7.2 39.0 1027.7 3.2 NE 4.8 0.0 362.0
09:05 7.6 37.0 1027.8 3.2 NE 4.8 0.0 371.0
09:10 7.7 35.0 1027.8 3.2 ENE 4.8 0.0 380.0
09:15 7.8 36.0 1027.7 4.8 ESE 4.8 0.0 343.0
09:20 7.9 34.0 1027.7 1.6 ESE 6.4 0.0 376.0
09:25 7.9 34.0 1027.9 3.2 ESE 6.4 0.0 394.0
09:30 7.9 32.0 1028.0 0.0 ESE 6.4 0.0 378.0
09:35 7.8 34.0 1028.2 3.2 SE 6.4 0.0 364.0
09:40 7.7 31.0 1028.1 3.2 SE 6.4 0.0 357.0
09:45 7.6 34.0 1028.1 1.6 SE 6.4 0.0 417.0
09:50 7.8 34.0 1028.2 1.6 SE 4.8 0.0 454.0
09:55 8.1 33.0 1028.2 1.6 SE 6.4 0.0 436.0
10:00 8.4 33.0 1028.3 3.2 SE 6.4 0.0 457.0
10:05 8.6 33.0 1028.1 0.0 SSE 9.7 0.0 439.0
10:10 8.8 35.0 1028.1 4.8 SE 8.0 0.0 457.0
10:15 9.0 32.0 1028.1 4.8 SE 8.0 0.0 483.0
10:20 9.2 34.0 1028.1 4.8 SE 6.4 0.0 404.0
10:25 9.5 33.0 1028.0 3.2 SE 6.4 0.0 513.0
10:30 9.8 33.0 1028.0 6.4 SSE 8.0 0.0 531.0
10:35 9.9 33.0 1028.1 3.2 SSE 8.0 0.0 554.0
10:40 10.0 31.0 1028.2 4.8 SSE 9.7 0.0 541.0
10:45 10.2 34.0 1028.1 4.8 SSE 9.7 0.0 545.0
10:50 10.4 34.0 1028.0 4.8 SSE 12.9 0.0 548.0
10:55 10.6 33.0 1027.9 6.4 SSE 12.9 0.0 554.0
11:00 10.8 31.0 1027.9 8.0 SSE 11.3 0.0 540.0
11:05 11.0 32.0 1027.9 6.4 SSE 11.3 0.0 526.0
11:10 11.2 34.0 1028.0 9.7 SSE 11.3 0.0 561.0
11:15 11.4 35.0 1027.8 6.4 SSE 11.3 0.0 557.0
11:20 11.5 35.0 1027.9 4.8 SSE 9.7 0.0 564.0
11:25 11.7 36.0 1027.8 6.4 SE 11.3 0.0 564.0
11:30 11.7 36.0 1027.7 6.4 SE 11.3 0.0 582.0
11:35 11.8 36.0 1027.7 4.8 SE 12.9 0.0 582.0
11:40 12.0 35.0 1027.6 6.4 SSE 12.9 0.0 594.0
11:45 12.2 37.0 1027.4 4.8 SSE 11.3 0.0 598.0
11:50 12.3 35.0 1027.4 3.2 SSE 11.3 0.0 598.0
11:55 12.4 33.0 1027.5 4.8 SSE 11.3 0.0 603.0
12:00 12.6 32.0 1027.4 9.7 SSE 11.3 0.0 599.0
12:05 12.7 34.0 1027.4 9.7 SSE 12.9 0.0 598.0
12:10 12.8 35.0 1027.2 9.7 SSE 12.9 0.0 601.0
12:15 13.0 37.0 1027.1 11.3 SSE 16.1 0.0 603.0
12:20 13.1 36.0 1027.1 14.5 SSE 14.5 0.0 601.0
12:25 12.9 35.0 1027.0 11.3 S 16.1 0.0 599.0
12:30 12.7 36.0 1027.0 14.5 SSE 17.7 0.0 580.0
12:35 12.5 38.0 1027.0 4.8 S 19.3 0.0 557.0
12:40 12.4 38.0 1026.9 17.7 SSE 19.3 0.0 568.0
12:45 12.4 38.0 1027.0 12.9 SE 17.7 0.0 545.0
12:50 12.4 39.0 1026.9 11.3 SE 17.7 0.0 541.0
12:55 12.4 38.0 1026.9 6.4 SE 19.3 0.0 563.0
13:00 12.5 38.0 1026.9 11.3 SSE 17.7 0.0 522.0
13:05 12.6 38.0 1026.8 9.7 SSE 17.7 0.0 464.0
13:10 12.4 38.0 1026.7 9.7 S 19.3 0.0 434.0
13:15 12.4 38.0 1026.7 11.3 SE 19.3 0.0 510.0
13:20 12.4 39.0 1026.7 16.1 SSE 16.1 0.0 487.0
13:25 12.2 40.0 1026.6 17.7 SSE 20.9 0.0 508.0
Màxima 13.1 61.0 1028.3 17.7 SSE 20.9 0.0 603.0
Mínima -0.4 31.0 1026.6
Total 0.0